EW4645 Weather Reports


time (UTC)temp
C
wind
direction
speed
KPH
gust
KPH
rain 1hr
cm
rain 24hr
cm
rain mn
cm
humidity
%
barometer
mb
20260508020005 8 0 0.0 0.0 0.00 0.03 0.00 86 1013.2
20260508014503 8 0 0.0 0.0 0.00 0.03 0.00 86 1013.3
20260508013006 9 0 1.6 0.0 0.00 0.03 0.00 86 1013.3
20260508011504 9 313 1.6 8.0 0.00 0.03 0.00 85 1013.2
20260508010006 9 313 0.0 3.2 0.00 0.03 0.00 85 1013.3
20260508004503 9 313 0.0 6.4 0.00 0.03 0.00 85 1013.5
20260508003006 9 313 0.0 3.2 0.00 0.03 0.00 85 1013.6
20260508001503 9 313 0.0 3.2 0.00 0.03 0.00 84 1013.7
20260507234504 9 300 0.0 4.8 0.00 0.03 0.00 83 1013.8
20260507231503 10 0 0.0 0.0 0.00 0.03 0.00 81 1013.7
20260507230007 10 0 0.0 0.0 0.00 0.03 0.00 81 1013.7
20260507224504 10 0 0.0 0.0 0.00 0.03 0.03 81 1013.6
20260507223006 10 0 0.0 0.0 0.00 0.03 0.03 80 1013.6
20260507221504 10 235 0.0 3.2 0.00 0.03 0.03 79 1013.6
20260507214503 10 0 0.0 0.0 0.00 0.03 0.03 78 1013.5
20260507213006 11 0 0.0 0.0 0.00 0.03 0.03 77 1013.4
20260507211504 11 234 0.0 14.5 0.00 0.03 0.03 77 1013.4
20260507210005 11 204 1.6 14.5 0.00 0.03 0.03 76 1013.2
20260507201503 11 194 0.0 6.4 0.00 0.03 0.03 73 1012.8
20260507193005 12 173 0.0 4.8 0.00 0.03 0.03 72 1012.6
20260507191505 12 219 1.6 9.7 0.00 0.03 0.03 71 1012.5
20260507190007 12 210 4.8 19.3 0.00 0.03 0.03 70 1012.4
20260507183007 12 212 3.2 17.7 0.00 0.03 0.03 70 1012.3
20260507181505 12 209 4.8 12.9 0.00 0.03 0.03 68 1012.3
20260507174505 12 200 6.4 25.7 0.00 0.03 0.03 67 1012.3
20260507173007 13 204 6.4 22.5 0.00 0.03 0.03 69 1012.3
20260507171504 13 207 4.8 20.9 0.00 0.03 0.03 69 1012.4
20260507170007 13 196 4.8 25.7 0.00 0.03 0.03 69 1012.5
20260507164505 13 181 6.4 19.3 0.00 0.03 0.03 70 1012.4
20260507163007 13 202 4.8 22.5 0.00 0.03 0.03 66 1012.4
20260507161505 13 206 8.0 30.6 0.00 0.03 0.03 69 1012.3
20260507160006 13 205 6.4 37.0 0.00 0.03 0.03 68 1012.4
20260507154505 14 208 6.4 24.1 0.00 0.03 0.03 67 1012.4
20260507153006 14 187 6.4 20.9 0.00 0.03 0.03 67 1012.3
20260507151505 14 189 9.7 33.8 0.00 0.03 0.03 67 1012.3
20260507150007 15 197 6.4 29.0 0.00 0.03 0.03 67 1012.3
20260507144505 14 184 9.7 30.6 0.00 0.03 0.03 63 1012.4
20260507143007 14 205 14.5 35.4 0.00 0.03 0.03 65 1012.5
20260507141505 15 209 9.7 29.0 0.00 0.03 0.03 60 1012.4
20260507140007 14 207 16.1 32.2 0.00 0.03 0.03 61 1012.6
20260507134504 13 203 17.7 40.2 0.00 0.03 0.03 62 1012.5
20260507133006 13 206 14.5 46.7 0.00 0.03 0.03 66 1012.5
20260507131505 13 204 16.1 33.8 0.00 0.03 0.03 66 1012.6
20260507130007 13 205 17.7 46.7 0.00 0.03 0.03 66 1012.6
20260507124504 13 204 16.1 37.0 0.00 0.03 0.03 64 1012.6
20260507123006 13 206 12.9 35.4 0.00 0.03 0.03 66 1012.6
20260507121505 13 204 14.5 38.6 0.00 0.03 0.03 66 1012.8
20260507120007 13 204 14.5 43.5 0.00 0.03 0.03 67 1012.7
20260507114505 13 207 14.5 49.9 0.00 0.03 0.03 65 1012.7
20260507113007 13 205 12.9 40.2 0.00 0.03 0.03 68 1012.6
20260507110006 13 208 11.3 32.2 0.00 0.03 0.03 69 1012.7
20260507101507 13 202 3.2 22.5 0.00 0.03 0.03 77 1012.8
20260507100006 13 202 1.6 9.7 0.00 0.03 0.03 80 1012.7
20260507094505 12 201 1.6 17.7 0.00 0.03 0.03 84 1012.7
20260507093007 11 193 1.6 9.7 0.00 0.03 0.03 84 1012.7
20260507090006 11 204 8.0 17.7 0.03 0.03 0.03 86 1012.7
20260507084505 10 201 9.7 22.5 0.03 0.03 0.03 85 1012.6
20260507083006 10 209 6.4 24.1 0.03 0.03 0.03 87 1012.6
20260507080006 10 210 14.5 33.8 0.00 0.00 0.00 82 1012.6
20260507074504 11 200 17.7 37.0 0.00 0.00 0.00 75 1012.5
20260507064504 11 199 16.1 33.8 0.00 0.00 0.00 74 1012.4
20260507063007 11 202 14.5 27.4 0.00 0.00 0.00 75 1012.5
20260507061505 11 200 14.5 30.6 0.00 0.00 0.00 76 1012.4
20260507060007 11 203 12.9 27.4 0.00 0.00 0.00 78 1012.5
20260507054504 10 196 12.9 29.0 0.00 0.00 0.00 78 1012.4
20260507053006 11 200 11.3 25.7 0.00 0.00 0.00 78 1012.4
20260507051505 10 201 11.3 22.5 0.00 0.00 0.00 77 1012.4
20260507050006 10 202 6.4 20.9 0.00 0.00 0.00 76 1012.4
20260507044504 10 204 4.8 20.9 0.00 0.00 0.00 75 1012.3
20260507041505 10 207 4.8 12.9 0.00 0.00 0.00 77 1012.3
20260507040006 10 205 4.8 16.1 0.00 0.00 0.00 77 1012.2
20260507034505 10 207 4.8 17.7 0.00 0.00 0.00 76 1012.4
20260507033006 10 206 8.0 17.7 0.00 0.00 0.00 76 1012.4
20260507031504 10 205 3.2 12.9 0.00 0.00 0.00 76 1012.5
20260507030007 10 207 6.4 19.3 0.00 0.00 0.00 76 1012.6
20260507024504 10 207 4.8 12.9 0.00 0.00 0.00 77 1012.5
20260507021504 10 202 3.2 9.7 0.00 0.00 0.00 77 1012.6